Location: Mesa Vista Observatory
(35.5777°N, 105.6987°W)
Time: 05:28:05
(UTC-06:00)

Transit 2A Rocket - All Passes

Search period start: 26 September 2020 00:00
Search period end: 06 October 2020 00:00
Orbit: 585 x 918 km, 66.7° (Epoch: 25 September)

Date Brightness Start Highest point End Pass type
(mag) Time Alt. Az. Time Alt. Az. Time Alt. Az.
26 Sep - 02:32:00 10° N 02:36:14 22° NE 02:40:10 10° E night (unlit)
26 Sep - 04:14:00 10° NW 04:19:08 46° WSW 04:23:46 10° S night (unlit)
26 Sep - 17:01:57 10° SSE 17:07:07 31° ESE 17:12:24 10° NE daylight
26 Sep - 18:43:59 10° SW 18:49:36 40° WNW 18:55:19 10° NNE daylight
27 Sep - 01:50:31 10° NNE 01:53:12 14° NE 01:55:46 10° ENE night (unlit)
27 Sep - 03:31:13 10° NNW 03:36:40 86° WSW 03:41:33 10° SSE night (unlit)
27 Sep - 16:21:01 10° SE 16:24:51 18° ESE 16:28:44 10° ENE daylight
27 Sep - 18:00:54 10° SW 18:06:52 66° WNW 18:12:59 10° NNE daylight
27 Sep - 19:48:30 10° WNW 19:50:40 12° NW 19:52:50 10° NNW visible
28 Sep - 02:48:43 10° NNW 02:54:03 52° ENE 02:58:51 10° SE night (unlit)
28 Sep - 04:32:54 10° WNW 04:35:59 16° WSW 04:38:57 10° SW night (unlit)
28 Sep - 17:18:18 10° SSW 17:24:17 76° ESE 17:30:25 10° NNE daylight
28 Sep - 19:03:23 10° W 19:07:34 19° NW 19:11:45 10° N daylight
29 Sep - 02:06:29 10° N 02:11:16 30° NE 02:15:39 10° ESE night (unlit)
29 Sep - 03:49:11 10° NW 03:53:46 30° WSW 03:57:58 10° SSW night (unlit)
29 Sep - 16:36:10 10° S 16:41:49 44° ESE 16:47:35 10° NE daylight
29 Sep - 18:19:23 10° WSW 18:24:37 29° NW 18:29:53 10° N daylight
30 Sep - 01:24:35 10° N 01:28:19 18° NE 01:31:50 10° E night (unlit)
30 Sep - 03:06:10 10° NW 03:11:25 57° WSW 03:16:08 10° S night (unlit)
30 Sep - 15:54:39 10° SSE 15:59:29 26° ESE 16:04:22 10° NE daylight
30 Sep - 17:36:00 10° SW 17:41:48 47° WNW 17:47:41 10° NNE daylight
01 Oct - 00:43:38 10° NNE 00:45:14 11° NE 00:46:47 10° ENE night (unlit)
01 Oct - 02:23:29 10° NNW 02:28:54 77° ENE 02:33:45 10° SSE night (unlit)
01 Oct - 15:14:10 10° SE 15:17:14 14° ESE 15:20:19 10° ENE daylight
01 Oct - 16:53:06 10° SSW 16:59:08 78° WNW 17:05:16 10° NNE daylight
01 Oct - 18:39:40 10° WNW 18:42:43 14° NW 18:45:47 10° NNW daylight
02 Oct - 01:41:05 10° NNW 01:46:14 42° ENE 01:50:53 10° SE night (unlit)
02 Oct - 03:24:39 10° WNW 03:28:21 20° WSW 03:31:50 10° SSW night (unlit)
02 Oct - 16:10:39 10° SSW 16:16:35 63° ESE 16:22:37 10° NNE daylight
02 Oct - 17:55:04 10° W 17:59:41 22° NW 18:04:18 10° N daylight
03 Oct - 00:58:57 10° N 01:03:23 25° NE 01:07:29 10° ESE night (unlit)
03 Oct - 02:41:16 10° NW 02:46:05 37° WSW 02:50:30 10° S night (unlit)
03 Oct - 15:28:43 10° S 15:34:09 37° ESE 15:39:42 10° NE daylight
03 Oct - 17:11:18 10° WSW 17:16:47 34° NW 17:22:18 10° N daylight
04 Oct - 00:17:16 10° N 00:20:24 15° NE 00:23:22 10° E night (unlit)
04 Oct - 01:58:22 10° NNW 02:03:41 72° WSW 02:08:27 10° SSE night (unlit)
04 Oct - 14:47:27 10° SSE 14:51:50 21° ESE 14:56:16 10° ENE daylight
04 Oct - 16:28:05 10° SW 16:34:01 56° WNW 16:40:02 10° NNE daylight
04 Oct - 18:17:27 10° NW 18:17:57 10° NW 18:18:26 10° NW daylight
05 Oct - 01:15:48 10° NNW 01:21:07 62° ENE 01:25:54 10° SE night (unlit)
05 Oct - 03:00:45 10° WNW 03:02:54 13° WSW 03:04:58 10° SW night (unlit)
05 Oct - 14:07:51 10° ESE 14:09:38 11° E 14:11:25 10° E daylight
05 Oct - 15:45:20 10° SSW 15:51:23 88° ESE 15:57:31 10° NNE daylight
05 Oct - 17:31:05 10° W 17:34:48 16° NW 17:38:30 10° N daylight
